Regional Weather Roundup
Issued by NWS Cleveland, OH

Home | Current Version | Previous Version | Text Only | Print | Product List | Glossary Off
Versions: 1 2 3 4 5 6 7 8 9 10 11 12 13 14 15 16 17 18 19 20 21 22 23 24 25 26 27 28 29 30 31 32 33 34 35 36 37 38 39 40 41 42 43 44 45 46 47 48 49 50

000
ASUS41 KCLE 250710
RWRCLE
OHIO REGIONAL WEATHER ROUNDUP
NATIONAL WEATHER SERVICE WILMINGTON, OH
300 AM EDT SAT OCT 25 2014

NOTE: "FAIR" INDICATES FEW OR NO CLOUDS BELOW 12,000 FEET WITH NO
SIGNIFICANT WEATHER AND/OR OBSTRUCTIONS TO VISIBILITY.

OHZ001>008-015>018-024>027-034-035-043-044-250800-
   NORTHWEST OHIO

CITY           SKY/WX    TMP DP  RH WIND       PRES   REMARKS
DEFIANCE       PTCLDY    48  47  96 SW5       29.96F FOG
FINDLAY        PTCLDY    47  43  86 S6        29.96F
TOLEDO EXPRESS PTCLDY    47  45  93 SW3       29.94F
TOLEDO METCALF FAIR      48  44  86 SW6       29.96S
LIMA           MOCLDY    52  46  80 S6        29.97F
$$

OHZ009>014-019>023-028>033-038-089-250800-
   NORTHEAST OHIO

CITY           SKY/WX    TMP DP  RH WIND       PRES   REMARKS
CLE-HOPKINS    CLOUDY    52  43  71 S3        29.98F
CLE-LAKEFRONT  MOCLDY    54  43  66 S8        29.94F
CUY CO. ARPT   NOT AVBL
LORAIN-ELYRIA  PTCLDY    48  42  80 SW6       29.96F
ASHTABULA      CLOUDY    50  43  77 CALM      29.96S
AKRON-CANTON   MOCLDY    46  38  73 S3        29.98F
WOOSTER        PTCLDY    46  39  76 CALM      29.99S
MANSFIELD      MOCLDY    48  41  76 SW6       29.98F
YOUNGSTOWN     CLOUDY    48  41  76 SW3       29.97F
$$

OHZ042-051>053-060>062-070>072-077>081-250800-
  SOUTHWEST OHIO

CITY           SKY/WX    TMP DP  RH WIND       PRES   REMARKS
CINC-COVINGTON CLEAR     46  40  79 CALM      30.03S
CINC-LUNKEN    CLEAR     42  41  96 CALM      30.05S
HAMILTON       CLEAR     41  40  96 CALM      30.04S
DAYTON         MOCLDY    52  45  77 SW7       30.02S
WRIGHT-PAT AFB MOCLDY    47  41  80 SE2       30.01S
DAYTON GENERAL PTCLDY    50  42  74 S5        30.01S
WILMINGTON     PTCLDY    46  38  73 SW3       30.02S
$$

OHZ036-037-039>041-045>050-054>059-063>069-073>076-082>088-250800-
  CENTRAL AND SOUTHEAST OHIO

CITY           SKY/WX    TMP DP  RH WIND       PRES   REMARKS
COLUMBUS       PTCLDY    45  39  79 CALM      30.01S
OSU AIRPORT    PTCLDY    46  38  73 CALM      30.00S
BOLTON FIELD   PTCLDY    47  39  75 SW5       30.02R
RICKENBACK AFB PTCLDY    43  38  83 S3        30.01S
NEWARK         CLEAR     38  36  92 CALM      30.01S
MARION         MOCLDY    48  40  73 SW5       29.99S
LANCASTER      CLEAR     41  38  89 SE5       30.02S
ZANESVILLE     CLEAR     40  36  86 CALM      30.01F
NEW PHILLY     PTCLDY    41  38  89 SE3       30.00F
$$



USA.gov is the U.S. government's official web portal to all federal, state and local government web resources and services.